Time,TemperatureF,DewpointF,PressureIn,WindDirection,WindDirectionDegrees,WindSpeedMPH,WindSpeedGustMPH,Humidity,HourlyPrecipIn,Conditions,Clouds,dailyrainin,SoftwareType,DateUTC
2013-03-21 00:00:00,60.2,43.0,30.00,ESE,120,3.0,-999.0,53,0.00,,,0.00,Wunderground v.1.15,2013-03-21 05:00:00,
2013-03-21 00:08:00,60.1,43.4,29.99,ESE,117,2.0,-999.0,54,0.00,,,0.00,Wunderground v.1.15,2013-03-21 05:08:00,
2013-03-21 00:14:00,60.0,43.3,29.99,ESE,104,2.0,-999.0,54,0.00,,,0.00,Wunderground v.1.15,2013-03-21 05:14:00,
2013-03-21 00:20:00,59.9,43.2,29.99,East,85,2.0,-999.0,54,0.00,,,0.00,Wunderground v.1.15,2013-03-21 05:20:00,
2013-03-21 00:28:00,59.9,43.2,29.99,ESE,112,2.0,-999.0,54,0.00,,,0.00,Wunderground v.1.15,2013-03-21 05:28:00,
2013-03-21 00:34:00,60.1,42.9,29.99,SE,134,2.0,-999.0,53,0.00,,,0.00,Wunderground v.1.15,2013-03-21 05:34:00,
2013-03-21 00:40:00,60.1,42.9,29.99,SSE,156,3.0,-999.0,53,0.00,,,0.00,Wunderground v.1.15,2013-03-21 05:40:00,
2013-03-21 00:48:00,60.0,42.8,29.99,SE,139,3.0,-999.0,53,0.00,,,0.00,Wunderground v.1.15,2013-03-21 05:48:00,
2013-03-21 00:54:00,59.8,42.6,29.99,ESE,105,3.0,-999.0,53,0.00,,,0.00,Wunderground v.1.15,2013-03-21 05:54:00,
2013-03-21 01:00:00,59.8,42.6,29.99,SE,145,3.0,-999.0,53,0.00,,,0.00,Wunderground v.1.15,2013-03-21 06:00:00,
2013-03-21 01:06:00,59.9,43.2,29.98,SE,133,3.0,-999.0,54,0.00,,,0.00,Wunderground v.1.15,2013-03-21 06:06:00,
2013-03-21 01:12:00,60.1,43.9,29.98,SE,136,3.0,-999.0,55,0.00,,,0.00,Wunderground v.1.15,2013-03-21 06:12:00,
2013-03-21 01:18:00,60.3,44.5,29.97,SSE,147,4.0,-999.0,56,0.00,,,0.00,Wunderground v.1.15,2013-03-21 06:18:00,
2013-03-21 01:24:00,60.3,45.0,29.97,SSE,158,5.0,-999.0,57,0.00,,,0.00,Wunderground v.1.15,2013-03-21 06:24:00,
2013-03-21 01:30:00,60.2,44.9,29.98,SSE,155,4.0,-999.0,57,0.00,,,0.00,Wunderground v.1.15,2013-03-21 06:30:00,
2013-03-21 01:38:00,60.1,45.3,29.98,SE,145,2.0,-999.0,58,0.00,,,0.00,Wunderground v.1.15,2013-03-21 06:38:00,
2013-03-21 01:44:00,60.1,45.3,29.98,SSE,150,2.0,-999.0,58,0.00,,,0.00,Wunderground v.1.15,2013-03-21 06:44:00,
2013-03-21 01:50:00,60.0,45.2,29.97,SE,136,3.0,-999.0,58,0.00,,,0.00,Wunderground v.1.15,2013-03-21 06:50:00,
2013-03-21 01:56:00,59.9,45.5,29.97,SE,145,3.0,-999.0,59,0.00,,,0.00,Wunderground v.1.15,2013-03-21 06:56:00,
2013-03-21 02:04:00,59.7,45.3,29.97,SSE,149,3.0,-999.0,59,0.00,,,0.00,Wunderground v.1.15,2013-03-21 07:04:00,
2013-03-21 02:10:00,59.6,45.2,29.97,SE,145,2.0,-999.0,59,0.00,,,0.00,Wunderground v.1.15,2013-03-21 07:10:00,
2013-03-21 02:16:00,59.5,45.6,29.96,South,171,2.0,-999.0,60,0.00,,,0.00,Wunderground v.1.15,2013-03-21 07:16:00,
2013-03-21 02:22:00,59.5,45.6,29.96,SE,146,2.0,-999.0,60,0.00,,,0.00,Wunderground v.1.15,2013-03-21 07:22:00,
2013-03-21 02:28:00,59.3,45.4,29.96,South,176,1.0,-999.0,60,0.00,,,0.00,Wunderground v.1.15,2013-03-21 07:28:00,
2013-03-21 02:34:00,59.1,45.2,29.96,SSE,152,1.0,-999.0,60,0.00,,,0.00,Wunderground v.1.15,2013-03-21 07:34:00,
2013-03-21 02:40:00,58.9,45.5,29.96,SE,141,1.0,-999.0,61,0.00,,,0.00,Wunderground v.1.15,2013-03-21 07:40:00,
2013-03-21 02:46:00,58.6,45.2,29.96,SSE,152,1.0,-999.0,61,0.00,,,0.00,Wunderground v.1.15,2013-03-21 07:46:00,
2013-03-21 02:52:00,58.4,45.4,29.95,SE,135,2.0,-999.0,62,0.00,,,0.00,Wunderground v.1.15,2013-03-21 07:52:00,
2013-03-21 02:58:00,58.3,45.3,29.96,SE,146,2.0,-999.0,62,0.00,,,0.00,Wunderground v.1.15,2013-03-21 07:58:00,
2013-03-21 03:04:00,58.2,45.7,29.95,SE,135,1.0,-999.0,63,0.00,,,0.00,Wunderground v.1.15,2013-03-21 08:04:00,
2013-03-21 03:10:00,58.2,45.7,29.96,ESE,120,0.0,-999.0,63,0.00,,,0.00,Wunderground v.1.15,2013-03-21 08:10:00,
2013-03-21 03:16:00,58.2,45.7,29.96,SE,131,0.0,-999.0,63,0.00,,,0.00,Wunderground v.1.15,2013-03-21 08:16:00,
2013-03-21 03:22:00,58.2,45.7,29.96,SSE,148,0.0,-999.0,63,0.00,,,0.00,Wunderground v.1.15,2013-03-21 08:22:00,
2013-03-21 03:28:00,58.2,45.7,29.95,SE,143,1.0,-999.0,63,0.00,,,0.00,Wunderground v.1.15,2013-03-21 08:28:00,
2013-03-21 03:34:00,58.1,45.6,29.95,SW,233,1.0,-999.0,63,0.00,,,0.00,Wunderground v.1.15,2013-03-21 08:34:00,
2013-03-21 03:40:00,58.0,45.5,29.94,SSW,197,1.0,-999.0,63,0.00,,,0.00,Wunderground v.1.15,2013-03-21 08:40:00,
2013-03-21 03:46:00,57.8,45.3,29.94,SSE,148,1.0,-999.0,63,0.00,,,0.00,Wunderground v.1.15,2013-03-21 08:46:00,
2013-03-21 03:52:00,57.7,45.2,29.94,SSE,155,1.0,-999.0,63,0.00,,,0.00,Wunderground v.1.15,2013-03-21 08:52:00,
2013-03-21 03:58:00,57.5,44.6,29.94,SSE,158,1.0,-999.0,62,0.00,,,0.00,Wunderground v.1.15,2013-03-21 08:58:00,
2013-03-21 04:04:00,57.3,44.8,29.94,SSE,155,1.0,-999.0,63,0.00,,,0.00,Wunderground v.1.15,2013-03-21 09:04:00,
2013-03-21 04:10:00,57.2,44.7,29.93,SE,126,1.0,-999.0,63,0.00,,,0.00,Wunderground v.1.15,2013-03-21 09:10:00,
2013-03-21 04:16:00,57.0,44.5,29.93,South,171,1.0,-999.0,63,0.00,,,0.00,Wunderground v.1.15,2013-03-21 09:16:00,
2013-03-21 04:22:00,56.8,44.3,29.93,South,186,1.0,-999.0,63,0.00,,,0.00,Wunderground v.1.15,2013-03-21 09:22:00,
2013-03-21 04:28:00,56.7,44.2,29.93,SE,146,2.0,-999.0,63,0.00,,,0.00,Wunderground v.1.15,2013-03-21 09:28:00,
2013-03-21 04:34:00,56.7,44.2,29.92,SSE,159,2.0,-999.0,63,0.00,,,0.00,Wunderground v.1.15,2013-03-21 09:34:00,
2013-03-21 04:40:00,56.7,44.2,29.92,SE,144,1.0,-999.0,63,0.00,,,0.00,Wunderground v.1.15,2013-03-21 09:40:00,
2013-03-21 04:46:00,56.7,44.2,29.92,SSW,197,1.0,-999.0,63,0.00,,,0.00,Wunderground v.1.15,2013-03-21 09:46:00,
2013-03-21 04:52:00,56.6,44.6,29.91,SSE,147,1.0,-999.0,64,0.00,,,0.00,Wunderground v.1.15,2013-03-21 09:52:00,
2013-03-21 04:58:00,56.6,44.6,29.91,SSE,158,1.0,-999.0,64,0.00,,,0.00,Wunderground v.1.15,2013-03-21 09:58:00,
2013-03-21 05:04:00,56.5,44.9,29.92,WSW,242,1.0,-999.0,65,0.00,,,0.00,Wunderground v.1.15,2013-03-21 10:04:00,
2013-03-21 05:10:00,56.3,44.7,29.91,SSW,200,1.0,-999.0,65,0.00,,,0.00,Wunderground v.1.15,2013-03-21 10:10:00,
2013-03-21 05:16:00,56.0,44.8,29.91,SW,231,1.0,-999.0,66,0.00,,,0.00,Wunderground v.1.15,2013-03-21 10:16:00,
2013-03-21 05:22:00,55.8,45.0,29.91,SW,225,1.0,-999.0,67,0.00,,,0.00,Wunderground v.1.15,2013-03-21 10:22:00,
2013-03-21 05:28:00,55.7,44.9,29.92,SW,235,1.0,-999.0,67,0.00,,,0.00,Wunderground v.1.15,2013-03-21 10:28:00,
2013-03-21 05:34:00,55.7,45.3,29.92,SW,233,1.0,-999.0,68,0.00,,,0.00,Wunderground v.1.15,2013-03-21 10:34:00,
2013-03-21 05:40:00,55.9,45.5,29.91,South,190,2.0,-999.0,68,0.00,,,0.00,Wunderground v.1.15,2013-03-21 10:40:00,
2013-03-21 05:46:00,56.0,45.6,29.91,SW,231,2.0,-999.0,68,0.00,,,0.00,Wunderground v.1.15,2013-03-21 10:46:00,
2013-03-21 05:52:00,56.1,45.7,29.90,South,183,2.0,-999.0,68,0.00,,,0.00,Wunderground v.1.15,2013-03-21 10:52:00,
2013-03-21 05:58:00,56.1,46.1,29.91,SSW,200,2.0,-999.0,69,0.00,,,0.00,Wunderground v.1.15,2013-03-21 10:58:00,
2013-03-21 06:04:00,56.1,46.4,29.90,SE,145,2.0,-999.0,70,0.00,,,0.00,Wunderground v.1.15,2013-03-21 11:04:00,
2013-03-21 06:10:00,56.2,46.9,29.91,SW,214,2.0,-999.0,71,0.00,,,0.00,Wunderground v.1.15,2013-03-21 11:10:00,
2013-03-21 06:16:00,56.3,47.0,29.90,SW,219,2.0,-999.0,71,0.00,,,0.00,Wunderground v.1.15,2013-03-21 11:16:00,
2013-03-21 06:22:00,56.4,47.5,29.90,WSW,257,1.0,-999.0,72,0.00,,,0.00,Wunderground v.1.15,2013-03-21 11:22:00,
2013-03-21 06:28:00,56.6,48.0,29.90,South,186,2.0,-999.0,73,0.00,,,0.00,Wunderground v.1.15,2013-03-21 11:28:00,
2013-03-21 06:34:00,56.8,48.6,29.91,SW,221,2.0,-999.0,74,0.00,,,0.00,Wunderground v.1.15,2013-03-21 11:34:00,
2013-03-21 06:40:00,56.9,48.3,29.90,WSW,243,2.0,-999.0,73,0.00,,,0.00,Wunderground v.1.15,2013-03-21 11:40:00,
2013-03-21 06:48:00,56.8,48.6,29.90,South,188,1.0,-999.0,74,0.00,,,0.00,Wunderground v.1.15,2013-03-21 11:48:00,
2013-03-21 06:54:00,56.7,48.9,29.90,South,172,2.0,-999.0,75,0.00,,,0.00,Wunderground v.1.15,2013-03-21 11:54:00,
2013-03-21 07:00:00,56.4,48.9,29.89,South,175,2.0,-999.0,76,0.00,,,0.00,Wunderground v.1.15,2013-03-21 12:00:00,
2013-03-21 07:06:00,56.2,49.1,29.90,WSW,240,2.0,-999.0,77,0.00,,,0.00,Wunderground v.1.15,2013-03-21 12:06:00,
2013-03-21 07:12:00,56.0,49.2,29.90,SW,222,2.0,-999.0,78,0.00,,,0.00,Wunderground v.1.15,2013-03-21 12:12:00,
2013-03-21 07:18:00,55.9,49.5,29.90,SW,221,1.0,-999.0,79,0.00,,,0.00,Wunderground v.1.15,2013-03-21 12:18:00,
2013-03-21 07:24:00,55.8,49.7,29.90,WSW,248,1.0,-999.0,80,0.00,,,0.00,Wunderground v.1.15,2013-03-21 12:24:00,
2013-03-21 07:30:00,55.9,49.8,29.90,SW,225,2.0,-999.0,80,0.00,,,0.00,Wunderground v.1.15,2013-03-21 12:30:00,
2013-03-21 07:36:00,55.8,50.1,29.89,SSW,204,2.0,-999.0,81,0.00,,,0.00,Wunderground v.1.15,2013-03-21 12:36:00,
2013-03-21 07:42:00,55.8,50.4,29.89,SW,222,2.0,-999.0,82,0.00,,,0.00,Wunderground v.1.15,2013-03-21 12:42:00,
2013-03-21 07:48:00,55.8,50.4,29.89,SW,218,2.0,-999.0,82,0.00,,,0.00,Wunderground v.1.15,2013-03-21 12:48:00,
2013-03-21 07:54:00,55.9,50.8,29.88,SSE,166,2.0,-999.0,83,0.00,,,0.00,Wunderground v.1.15,2013-03-21 12:54:00,
2013-03-21 08:00:00,56.0,50.9,29.88,SW,225,2.0,-999.0,83,0.00,,,0.00,Wunderground v.1.15,2013-03-21 13:00:00,
2013-03-21 08:06:00,56.2,51.1,29.88,SW,222,2.0,-999.0,83,0.00,,,0.00,Wunderground v.1.15,2013-03-21 13:06:00,
2013-03-21 08:12:00,56.2,51.1,29.88,SW,217,2.0,-999.0,83,0.00,,,0.00,Wunderground v.1.15,2013-03-21 13:12:00,
2013-03-21 08:18:00,56.5,51.7,29.88,WSW,248,3.0,-999.0,84,0.00,,,0.00,Wunderground v.1.15,2013-03-21 13:18:00,
2013-03-21 08:24:00,56.9,52.1,29.88,SW,235,3.0,-999.0,84,0.00,,,0.00,Wunderground v.1.15,2013-03-21 13:24:00,
2013-03-21 08:30:00,57.1,52.0,29.87,South,186,2.0,-999.0,83,0.00,,,0.00,Wunderground v.1.15,2013-03-21 13:30:00,
2013-03-21 08:38:00,57.2,52.1,29.87,SSW,198,3.0,-999.0,83,0.00,,,0.00,Wunderground v.1.15,2013-03-21 13:38:00,
2013-03-21 08:44:00,57.3,52.2,29.88,SSE,163,3.0,-999.0,83,0.00,,,0.00,Wunderground v.1.15,2013-03-21 13:44:00,
2013-03-21 08:50:00,57.5,52.4,29.88,SSE,155,3.0,-999.0,83,0.00,,,0.00,Wunderground v.1.15,2013-03-21 13:50:00,
2013-03-21 08:56:00,57.8,52.7,29.88,SE,131,3.0,-999.0,83,0.00,,,0.00,Wunderground v.1.15,2013-03-21 13:56:00,
2013-03-21 09:04:00,58.2,53.1,29.88,SW,233,3.0,-999.0,83,0.00,,,0.00,Wunderground v.1.15,2013-03-21 14:04:00,
2013-03-21 09:10:00,58.4,53.3,29.88,SW,218,3.0,-999.0,83,0.00,,,0.00,Wunderground v.1.15,2013-03-21 14:10:00,
2013-03-21 09:18:00,58.6,53.5,29.88,SW,224,4.0,-999.0,83,0.00,,,0.00,Wunderground v.1.15,2013-03-21 14:18:00,
2013-03-21 09:24:00,58.7,53.5,29.88,SE,127,4.0,-999.0,83,0.00,,,0.00,Wunderground v.1.15,2013-03-21 14:24:00,
2013-03-21 09:30:00,59.1,53.9,29.88,WSW,245,4.0,-999.0,83,0.00,,,0.00,Wunderground v.1.15,2013-03-21 14:30:00,
2013-03-21 09:36:00,59.4,54.2,29.88,SW,229,3.0,-999.0,83,0.00,,,0.00,Wunderground v.1.15,2013-03-21 14:36:00,
2013-03-21 09:42:00,59.7,54.5,29.88,SW,227,4.0,-999.0,83,0.00,,,0.00,Wunderground v.1.15,2013-03-21 14:42:00,
2013-03-21 09:48:00,59.6,54.4,29.88,SSE,153,4.0,-999.0,83,0.00,,,0.00,Wunderground v.1.15,2013-03-21 14:48:00,
2013-03-21 09:54:00,59.7,54.5,29.88,SW,217,5.0,-999.0,83,0.00,,,0.00,Wunderground v.1.15,2013-03-21 14:54:00,
2013-03-21 10:00:00,59.6,54.4,29.88,SW,233,4.0,-999.0,83,0.00,,,0.00,Wunderground v.1.15,2013-03-21 15:00:00,
2013-03-21 10:08:00,60.1,54.9,29.87,SE,141,5.0,-999.0,83,0.00,,,0.00,Wunderground v.1.15,2013-03-21 15:08:00,
2013-03-21 10:14:00,60.7,55.5,29.87,SE,146,4.0,-999.0,83,0.00,,,0.00,Wunderground v.1.15,2013-03-21 15:14:00,
2013-03-21 10:20:00,61.4,55.9,29.87,SW,226,5.0,-999.0,82,0.00,,,0.00,Wunderground v.1.15,2013-03-21 15:20:00,
2013-03-21 10:28:00,62.2,56.3,29.87,West,262,6.0,-999.0,81,0.00,,,0.00,Wunderground v.1.15,2013-03-21 15:28:00,
2013-03-21 10:34:00,62.6,56.3,29.86,SSW,207,6.0,-999.0,80,0.00,,,0.00,Wunderground v.1.15,2013-03-21 15:34:00,
2013-03-21 10:40:00,63.0,56.4,29.86,South,191,7.0,-999.0,79,0.00,,,0.00,Wunderground v.1.15,2013-03-21 15:40:00,
2013-03-21 10:46:00,63.4,56.1,29.86,SSW,199,7.0,-999.0,77,0.00,,,0.00,Wunderground v.1.15,2013-03-21 15:46:00,
2013-03-21 10:52:00,63.6,56.3,29.85,SSE,160,7.0,-999.0,77,0.00,,,0.00,Wunderground v.1.15,2013-03-21 15:52:00,
2013-03-21 10:58:00,64.2,56.5,29.85,SW,236,6.0,-999.0,76,0.00,,,0.00,Wunderground v.1.15,2013-03-21 15:58:00,
2013-03-21 11:04:00,64.9,56.8,29.86,SSW,196,6.0,-999.0,75,0.00,,,0.00,Wunderground v.1.15,2013-03-21 16:04:00,
2013-03-21 11:10:00,65.0,56.5,29.85,SE,141,7.0,-999.0,74,0.00,,,0.00,Wunderground v.1.15,2013-03-21 16:10:00,
2013-03-21 11:16:00,65.6,56.7,29.85,SE,132,6.0,-999.0,73,0.00,,,0.00,Wunderground v.1.15,2013-03-21 16:16:00,
2013-03-21 11:22:00,65.8,56.5,29.84,SE,141,6.0,-999.0,72,0.00,,,0.00,Wunderground v.1.15,2013-03-21 16:22:00,
2013-03-21 11:28:00,66.2,56.9,29.84,SW,222,6.0,-999.0,72,0.00,,,0.00,Wunderground v.1.15,2013-03-21 16:28:00,
2013-03-21 11:34:00,66.6,56.5,29.84,SE,139,6.0,-999.0,70,0.00,,,0.00,Wunderground v.1.15,2013-03-21 16:34:00,
2013-03-21 11:40:00,67.1,56.6,29.84,SE,129,6.0,-999.0,69,0.00,,,0.00,Wunderground v.1.15,2013-03-21 16:40:00,
2013-03-21 11:46:00,67.7,56.8,29.83,SSE,152,5.0,-999.0,68,0.00,,,0.00,Wunderground v.1.15,2013-03-21 16:46:00,
2013-03-21 11:52:00,67.9,56.5,29.83,SSW,204,6.0,-999.0,67,0.00,,,0.00,Wunderground v.1.15,2013-03-21 16:52:00,
2013-03-21 11:58:00,68.4,56.6,29.82,South,173,6.0,-999.0,66,0.00,,,0.00,Wunderground v.1.15,2013-03-21 16:58:00,
2013-03-21 12:04:00,68.7,56.5,29.82,WSW,252,7.0,-999.0,65,0.00,,,0.00,Wunderground v.1.15,2013-03-21 17:04:00,
2013-03-21 12:10:00,68.7,56.0,29.82,South,187,8.0,-999.0,64,0.00,,,0.00,Wunderground v.1.15,2013-03-21 17:10:00,
2013-03-21 12:18:00,69.0,56.3,29.82,SW,232,8.0,-999.0,64,0.00,,,0.00,Wunderground v.1.15,2013-03-21 17:18:00,
2013-03-21 12:24:00,69.0,56.3,29.81,SSW,198,7.0,-999.0,64,0.00,,,0.00,Wunderground v.1.15,2013-03-21 17:24:00,
2013-03-21 12:30:00,70.0,56.8,29.81,SSW,200,7.0,-999.0,63,0.00,,,0.00,Wunderground v.1.15,2013-03-21 17:30:00,
2013-03-21 12:38:00,70.3,55.8,29.80,South,176,7.0,-999.0,60,0.00,,,0.00,Wunderground v.1.15,2013-03-21 17:38:00,
2013-03-21 12:44:00,70.0,55.9,29.80,SW,217,8.0,-999.0,61,0.00,,,0.00,Wunderground v.1.15,2013-03-21 17:44:00,
2013-03-21 12:50:00,70.4,56.3,29.80,SW,227,8.0,-999.0,61,0.00,,,0.00,Wunderground v.1.15,2013-03-21 17:50:00,
2013-03-21 12:56:00,70.4,56.3,29.79,SW,235,8.0,-999.0,61,0.00,,,0.00,Wunderground v.1.15,2013-03-21 17:56:00,
2013-03-21 13:04:00,71.5,56.9,29.78,WSW,255,7.0,-999.0,60,0.00,,,0.00,Wunderground v.1.15,2013-03-21 18:04:00,
2013-03-21 13:10:00,71.8,56.7,29.77,SE,131,8.0,-999.0,59,0.00,,,0.00,Wunderground v.1.15,2013-03-21 18:10:00,
2013-03-21 13:18:00,71.5,56.9,29.77,WSW,255,8.0,-999.0,60,0.00,,,0.00,Wunderground v.1.15,2013-03-21 18:18:00,
2013-03-21 13:24:00,71.6,57.0,29.77,SW,217,7.0,-999.0,60,0.00,,,0.00,Wunderground v.1.15,2013-03-21 18:24:00,
2013-03-21 13:30:00,71.4,57.2,29.77,WSW,245,8.0,-999.0,61,0.00,,,0.00,Wunderground v.1.15,2013-03-21 18:30:00,
2013-03-21 13:36:00,71.5,57.3,29.76,SE,146,7.0,-999.0,61,0.00,,,0.00,Wunderground v.1.15,2013-03-21 18:36:00,
2013-03-21 13:42:00,71.3,57.6,29.76,WSW,248,7.0,-999.0,62,0.00,,,0.00,Wunderground v.1.15,2013-03-21 18:42:00,
2013-03-21 13:48:00,71.3,57.6,29.75,SW,226,7.0,-999.0,62,0.00,,,0.00,Wunderground v.1.15,2013-03-21 18:48:00,
2013-03-21 13:54:00,71.1,57.9,29.75,SSW,204,7.0,-999.0,63,0.00,,,0.00,Wunderground v.1.15,2013-03-21 18:54:00,
2013-03-21 14:00:00,72.0,58.3,29.74,WSW,242,6.0,-999.0,62,0.00,,,0.00,Wunderground v.1.15,2013-03-21 19:00:00,
2013-03-21 14:06:00,72.4,58.2,29.74,SW,228,6.0,-999.0,61,0.00,,,0.00,Wunderground v.1.15,2013-03-21 19:06:00,
2013-03-21 14:12:00,72.4,58.2,29.73,West,269,7.0,-999.0,61,0.00,,,0.00,Wunderground v.1.15,2013-03-21 19:12:00,
2013-03-21 14:18:00,72.2,58.0,29.73,WSW,239,7.0,-999.0,61,0.00,,,0.00,Wunderground v.1.15,2013-03-21 19:18:00,
2013-03-21 14:24:00,72.1,58.4,29.73,SE,146,8.0,-999.0,62,0.00,,,0.00,Wunderground v.1.15,2013-03-21 19:24:00,
2013-03-21 14:30:00,72.2,58.5,29.72,SSW,210,7.0,-999.0,62,0.00,,,0.00,Wunderground v.1.15,2013-03-21 19:30:00,
2013-03-21 14:36:00,72.3,58.1,29.72,WSW,249,7.0,-999.0,61,0.00,,,0.00,Wunderground v.1.15,2013-03-21 19:36:00,
2013-03-21 14:42:00,72.4,58.2,29.71,SSW,200,8.0,-999.0,61,0.00,,,0.00,Wunderground v.1.15,2013-03-21 19:42:00,
2013-03-21 14:48:00,72.4,58.2,29.71,SW,227,7.0,-999.0,61,0.00,,,0.00,Wunderground v.1.15,2013-03-21 19:48:00,
2013-03-21 14:54:00,72.4,58.2,29.71,West,262,6.0,-999.0,61,0.00,,,0.00,Wunderground v.1.15,2013-03-21 19:54:00,
2013-03-21 15:00:00,72.2,58.0,29.70,SSW,199,7.0,-999.0,61,0.00,,,0.00,Wunderground v.1.15,2013-03-21 20:00:00,
2013-03-21 15:06:00,72.0,58.3,29.70,WSW,252,7.0,-999.0,62,0.00,,,0.00,Wunderground v.1.15,2013-03-21 20:06:00,
2013-03-21 15:12:00,71.8,58.1,29.70,West,274,7.0,-999.0,62,0.00,,,0.00,Wunderground v.1.15,2013-03-21 20:12:00,
2013-03-21 15:18:00,71.9,58.2,29.70,SSE,155,6.0,-999.0,62,0.00,,,0.00,Wunderground v.1.15,2013-03-21 20:18:00,
2013-03-21 15:24:00,72.0,58.7,29.69,WSW,245,6.0,-999.0,63,0.00,,,0.00,Wunderground v.1.15,2013-03-21 20:24:00,
2013-03-21 15:30:00,72.6,58.8,29.68,SSW,204,6.0,-999.0,62,0.00,,,0.00,Wunderground v.1.15,2013-03-21 20:30:00,
2013-03-21 15:36:00,72.7,58.5,29.68,South,180,7.0,-999.0,61,0.00,,,0.00,Wunderground v.1.15,2013-03-21 20:36:00,
2013-03-21 15:42:00,72.7,58.5,29.67,WSW,253,6.0,-999.0,61,0.00,,,0.00,Wunderground v.1.15,2013-03-21 20:42:00,
2013-03-21 15:48:00,72.7,58.9,29.67,SW,224,6.0,-999.0,62,0.00,,,0.00,Wunderground v.1.15,2013-03-21 20:48:00,
2013-03-21 15:54:00,72.8,58.6,29.67,WSW,239,6.0,-999.0,61,0.00,,,0.00,Wunderground v.1.15,2013-03-21 20:54:00,
2013-03-21 16:00:00,72.8,59.0,29.67,SSW,210,7.0,-999.0,62,0.00,,,0.00,Wunderground v.1.15,2013-03-21 21:00:00,
2013-03-21 16:06:00,73.3,59.0,29.66,SW,221,6.0,-999.0,61,0.00,,,0.00,Wunderground v.1.15,2013-03-21 21:06:00,
2013-03-21 16:12:00,73.7,58.9,29.66,WSW,250,7.0,-999.0,60,0.00,,,0.00,Wunderground v.1.15,2013-03-21 21:12:00,
2013-03-21 16:18:00,73.6,58.9,29.66,WSW,243,8.0,-999.0,60,0.00,,,0.00,Wunderground v.1.15,2013-03-21 21:18:00,
2013-03-21 16:24:00,73.6,59.3,29.65,South,184,7.0,-999.0,61,0.00,,,0.00,Wunderground v.1.15,2013-03-21 21:24:00,
2013-03-21 16:30:00,74.0,59.2,29.65,West,278,6.0,-999.0,60,0.00,,,0.00,Wunderground v.1.15,2013-03-21 21:30:00,
2013-03-21 16:36:00,74.1,59.3,29.64,WSW,245,7.0,-999.0,60,0.00,,,0.00,Wunderground v.1.15,2013-03-21 21:36:00,
2013-03-21 16:42:00,74.4,59.6,29.64,SSE,149,6.0,-999.0,60,0.00,,,0.00,Wunderground v.1.15,2013-03-21 21:42:00,
2013-03-21 16:48:00,74.4,59.6,29.63,SW,222,7.0,-999.0,60,0.00,,,0.00,Wunderground v.1.15,2013-03-21 21:48:00,
2013-03-21 16:54:00,74.1,59.3,29.63,SW,227,8.0,-999.0,60,0.00,,,0.00,Wunderground v.1.15,2013-03-21 21:54:00,
2013-03-21 17:00:00,74.1,59.3,29.63,South,173,7.0,-999.0,60,0.00,,,0.00,Wunderground v.1.15,2013-03-21 22:00:00,
2013-03-21 17:08:00,74.0,59.7,29.63,SW,219,8.0,-999.0,61,0.00,,,0.00,Wunderground v.1.15,2013-03-21 22:08:00,
2013-03-21 17:14:00,73.9,59.6,29.62,West,277,7.0,-999.0,61,0.00,,,0.00,Wunderground v.1.15,2013-03-21 22:14:00,
2013-03-21 17:20:00,74.0,59.7,29.62,SW,236,6.0,-999.0,61,0.00,,,0.00,Wunderground v.1.15,2013-03-21 22:20:00,
2013-03-21 17:26:00,73.6,59.8,29.62,SW,225,7.0,-999.0,62,0.00,,,0.00,Wunderground v.1.15,2013-03-21 22:26:00,
2013-03-21 17:32:00,73.6,59.8,29.62,WSW,250,7.0,-999.0,62,0.00,,,0.00,Wunderground v.1.15,2013-03-21 22:32:00,
2013-03-21 17:38:00,73.9,60.1,29.62,SW,233,6.0,-999.0,62,0.00,,,0.00,Wunderground v.1.15,2013-03-21 22:38:00,
2013-03-21 17:44:00,74.0,60.2,29.61,SW,228,7.0,-999.0,62,0.00,,,0.00,Wunderground v.1.15,2013-03-21 22:44:00,
2013-03-21 17:50:00,73.9,60.5,29.61,WSW,250,6.0,-999.0,63,0.00,,,0.00,Wunderground v.1.15,2013-03-21 22:50:00,
2013-03-21 17:56:00,74.0,60.6,29.61,SW,229,6.0,-999.0,63,0.00,,,0.00,Wunderground v.1.15,2013-03-21 22:56:00,
2013-03-21 18:04:00,74.3,60.4,29.61,SW,226,6.0,-999.0,62,0.00,,,0.00,Wunderground v.1.15,2013-03-21 23:04:00,
2013-03-21 18:10:00,74.3,60.4,29.61,SW,226,7.0,-999.0,62,0.00,,,0.00,Wunderground v.1.15,2013-03-21 23:10:00,
2013-03-21 18:16:00,74.2,60.3,29.61,SW,217,6.0,-999.0,62,0.00,,,0.00,Wunderground v.1.15,2013-03-21 23:16:00,
2013-03-21 18:22:00,74.1,60.7,29.61,ESE,119,6.0,-999.0,63,0.00,,,0.00,Wunderground v.1.15,2013-03-21 23:22:00,
2013-03-21 18:28:00,74.3,60.9,29.61,SW,232,5.0,-999.0,63,0.00,,,0.00,Wunderground v.1.15,2013-03-21 23:28:00,
2013-03-21 18:34:00,74.1,60.7,29.61,SW,233,6.0,-999.0,63,0.00,,,0.00,Wunderground v.1.15,2013-03-21 23:34:00,
2013-03-21 18:40:00,73.9,60.5,29.61,WSW,246,6.0,-999.0,63,0.00,,,0.00,Wunderground v.1.15,2013-03-21 23:40:00,
2013-03-21 18:48:00,73.8,60.9,29.61,SW,214,5.0,-999.0,64,0.00,,,0.00,Wunderground v.1.15,2013-03-21 23:48:00,
2013-03-21 18:54:00,73.7,60.8,29.61,SSW,211,6.0,-999.0,64,0.00,,,0.00,Wunderground v.1.15,2013-03-21 23:54:00,
2013-03-21 19:00:00,73.5,60.6,29.61,South,180,6.0,-999.0,64,0.00,,,0.00,Wunderground v.1.15,2013-03-22 00:00:00,
2013-03-21 19:06:00,73.5,60.6,29.61,South,180,7.0,-999.0,64,0.00,,,0.00,Wunderground v.1.15,2013-03-22 00:06:00,
2013-03-21 19:12:00,73.5,60.1,29.61,WSW,238,6.0,-999.0,63,0.00,,,0.00,Wunderground v.1.15,2013-03-22 00:12:00,
2013-03-21 19:18:00,73.3,60.4,29.61,SW,224,6.0,-999.0,64,0.00,,,0.00,Wunderground v.1.15,2013-03-22 00:18:00,
2013-03-21 19:24:00,73.1,60.6,29.61,ESE,115,6.0,-999.0,65,0.00,,,0.00,Wunderground v.1.15,2013-03-22 00:24:00,
2013-03-21 19:30:00,72.9,60.4,29.61,SW,229,5.0,-999.0,65,0.00,,,0.00,Wunderground v.1.15,2013-03-22 00:30:00,
2013-03-21 19:36:00,72.7,60.3,29.61,SW,225,5.0,-999.0,65,0.00,,,0.00,Wunderground v.1.15,2013-03-22 00:36:00,
2013-03-21 19:42:00,72.6,60.6,29.61,West,262,6.0,-999.0,66,0.00,,,0.00,Wunderground v.1.15,2013-03-22 00:42:00,
2013-03-21 19:48:00,72.4,60.4,29.61,SW,218,6.0,-999.0,66,0.00,,,0.00,Wunderground v.1.15,2013-03-22 00:48:00,
2013-03-21 19:54:00,72.3,60.3,29.61,SSW,205,5.0,-999.0,66,0.00,,,0.00,Wunderground v.1.15,2013-03-22 00:54:00,
2013-03-21 20:00:00,72.2,60.6,29.61,South,181,5.0,-999.0,67,0.00,,,0.00,Wunderground v.1.15,2013-03-22 01:00:00,
2013-03-21 20:06:00,72.0,60.4,29.61,SE,127,5.0,-999.0,67,0.00,,,0.00,Wunderground v.1.15,2013-03-22 01:06:00,
2013-03-21 20:12:00,71.8,60.2,29.61,SSW,197,4.0,-999.0,67,0.00,,,0.00,Wunderground v.1.15,2013-03-22 01:12:00,
2013-03-21 20:18:00,71.6,60.5,29.61,SSE,160,5.0,-999.0,68,0.00,,,0.00,Wunderground v.1.15,2013-03-22 01:18:00,
2013-03-21 20:24:00,71.4,60.3,29.62,SE,136,4.0,-999.0,68,0.00,,,0.00,Wunderground v.1.15,2013-03-22 01:24:00,
2013-03-21 20:30:00,71.4,60.3,29.63,SW,216,4.0,-999.0,68,0.00,,,0.00,Wunderground v.1.15,2013-03-22 01:30:00,
2013-03-21 20:36:00,71.4,60.7,29.63,South,190,5.0,-999.0,69,0.00,,,0.00,Wunderground v.1.15,2013-03-22 01:36:00,
2013-03-21 20:42:00,71.1,60.8,29.64,South,172,7.0,-999.0,70,0.00,,,0.00,Wunderground v.1.15,2013-03-22 01:42:00,
2013-03-21 20:48:00,70.7,60.8,29.63,South,173,6.0,-999.0,71,0.00,,,0.00,Wunderground v.1.15,2013-03-22 01:48:00,
2013-03-21 20:54:00,70.4,60.9,29.63,South,177,6.0,-999.0,72,0.00,,,0.00,Wunderground v.1.15,2013-03-22 01:54:00,
2013-03-21 21:00:00,70.2,60.7,29.64,SE,131,5.0,-999.0,72,0.00,,,0.00,Wunderground v.1.15,2013-03-22 02:00:00,
2013-03-21 21:08:00,69.9,60.8,29.64,SSE,147,5.0,-999.0,73,0.00,,,0.00,Wunderground v.1.15,2013-03-22 02:08:00,
2013-03-21 21:14:00,69.8,60.8,29.64,SE,143,4.0,-999.0,73,0.00,,,0.00,Wunderground v.1.15,2013-03-22 02:14:00,
2013-03-21 21:20:00,69.7,60.7,29.64,SSE,150,5.0,-999.0,73,0.00,,,0.00,Wunderground v.1.15,2013-03-22 02:20:00,
2013-03-21 21:26:00,69.6,60.6,29.64,WSW,252,7.0,-999.0,73,0.00,,,0.00,Wunderground v.1.15,2013-03-22 02:26:00,
2013-03-21 21:32:00,69.5,60.8,29.64,SSE,149,8.0,-999.0,74,0.00,,,0.00,Wunderground v.1.15,2013-03-22 02:32:00,
2013-03-21 21:38:00,69.3,60.7,29.64,SSE,151,7.0,-999.0,74,0.00,,,0.00,Wunderground v.1.15,2013-03-22 02:38:00,
2013-03-21 21:44:00,69.1,60.5,29.64,SE,144,6.0,-999.0,74,0.00,,,0.00,Wunderground v.1.15,2013-03-22 02:44:00,
2013-03-21 21:50:00,69.0,60.4,29.64,SW,219,7.0,-999.0,74,0.00,,,0.00,Wunderground v.1.15,2013-03-22 02:50:00,
2013-03-21 21:58:00,68.6,60.4,29.64,SE,132,6.0,-999.0,75,0.00,,,0.00,Wunderground v.1.15,2013-03-22 02:58:00,
2013-03-21 22:04:00,68.4,60.2,29.64,SSE,158,5.0,-999.0,75,0.00,,,0.00,Wunderground v.1.15,2013-03-22 03:04:00,
2013-03-21 22:10:00,68.1,60.2,29.64,ESE,110,6.0,-999.0,76,0.00,,,0.00,Wunderground v.1.15,2013-03-22 03:10:00,
2013-03-21 22:18:00,67.7,60.2,29.65,SSE,156,6.0,-999.0,77,0.00,,,0.00,Wunderground v.1.15,2013-03-22 03:18:00,
2013-03-21 22:24:00,67.4,60.3,29.65,South,176,6.0,-999.0,78,0.00,,,0.00,Wunderground v.1.15,2013-03-22 03:24:00,
2013-03-21 22:30:00,67.1,60.4,29.65,SE,145,6.0,-999.0,79,0.00,,,0.00,Wunderground v.1.15,2013-03-22 03:30:00,
2013-03-21 22:38:00,66.8,60.4,29.65,SE,142,6.0,-999.0,80,0.00,,,0.00,Wunderground v.1.15,2013-03-22 03:38:00,
2013-03-21 22:44:00,66.6,60.2,29.65,South,169,6.0,-999.0,80,0.00,,,0.00,Wunderground v.1.15,2013-03-22 03:44:00,
2013-03-21 22:50:00,66.3,60.3,29.65,South,169,5.0,-999.0,81,0.00,,,0.00,Wunderground v.1.15,2013-03-22 03:50:00,
2013-03-21 22:56:00,66.1,60.4,29.65,WSW,246,5.0,-999.0,82,0.00,,,0.00,Wunderground v.1.15,2013-03-22 03:56:00,
2013-03-21 23:04:00,65.8,60.5,29.65,SW,222,5.0,-999.0,83,0.00,,,0.00,Wunderground v.1.15,2013-03-22 04:04:00,
2013-03-21 23:06:00,65.8,60.5,29.65,SE,142,5.0,-999.0,83,0.00,,,0.00,Wunderground v.1.15,2013-03-22 04:06:00,
2013-03-21 23:08:00,65.7,60.7,29.65,SSE,160,6.0,-999.0,84,0.00,,,0.00,Wunderground v.1.15,2013-03-22 04:08:00,
2013-03-21 23:12:00,65.6,60.6,29.64,SSE,165,6.0,-999.0,84,0.00,,,0.00,Wunderground v.1.15,2013-03-22 04:12:00,
2013-03-21 23:18:00,65.5,60.5,29.64,SE,131,7.0,-999.0,84,0.00,,,0.00,Wunderground v.1.15,2013-03-22 04:18:00,
2013-03-21 23:24:00,65.4,60.8,29.65,SSE,149,6.0,-999.0,85,0.00,,,0.00,Wunderground v.1.15,2013-03-22 04:24:00,
2013-03-21 23:30:00,65.3,61.0,29.64,SSE,167,6.0,-999.0,86,0.00,,,0.00,Wunderground v.1.15,2013-03-22 04:30:00,
2013-03-21 23:38:00,65.2,60.9,29.64,ESE,113,6.0,-999.0,86,0.00,,,0.00,Wunderground v.1.15,2013-03-22 04:38:00,
2013-03-21 23:44:00,65.2,61.2,29.64,SE,137,6.0,-999.0,87,0.00,,,0.00,Wunderground v.1.15,2013-03-22 04:44:00,
2013-03-21 23:50:00,65.2,61.2,29.65,South,172,6.0,-999.0,87,0.00,,,0.00,Wunderground v.1.15,2013-03-22 04:50:00,
2013-03-21 23:56:00,65.2,61.2,29.65,South,169,5.0,-999.0,87,0.00,,,0.00,Wunderground v.1.15,2013-03-22 04:56:00,